Hourly Data Report for October 06, 2017

All times are specified in Local Standard Time (LST). Add 1 hour to adjust for Daylight Saving Time where and when it is observed.

KOUCHIBOUGUAC CS
NEW BRUNSWICK

46°47'00.000" N
65°01'00.000" W
21.00 m
8102328
71670
AKC

Download Data

Hourly Data (October 2017)
Hourly Data Report for October 6, 2017
Temp Definition
°C
Dew Point Temp Definition
°C
Rel Hum Definition
%
Wind Dir Definition
10's deg

Wind Spd Definition
km/h
Visibility Definition
km
Stn Press Definition
kPa
Hmdx Definition


Wind Chill Definition


Weather Definition


TIME
00:00 13.3 6.7 64 22 7   100.90     LegendNANA
01:00 12.6 6.9 69 20 8   100.92     LegendNANA
02:00 10.8 6.9 77 29 7   100.99     LegendNANA
03:00 11.2 7.4 78 22 3   100.99     LegendNANA
04:00 11.0 7.3 78 23 6   101.01     LegendNANA
05:00 9.9 7.2 84 24 4   101.10     LegendNANA
06:00 9.3 6.9 85 26 5   101.15     LegendNANA
07:00 9.3 6.3 82 27 7   101.25     LegendNANA
08:00 10.8 6.6 75 29 8   101.33     LegendNANA
09:00 12.9 5.6 61 29 8   101.36     LegendNANA
10:00 14.3 5.3 55 29 11   101.38     LegendNANA
11:00 15.9 5.2 49 26 9   101.29     LegendNANA
12:00 16.5 5.4 48 26 12   101.25     LegendNANA
13:00 17.0 5.6 47 26 11   101.22     LegendNANA
14:00 16.3 5.5 49 25 8   101.21     LegendNANA
15:00 15.7 6.0 53 25 6   101.22     LegendNANA
16:00 16.8 5.3 47 26 11   101.21     LegendNANA
17:00 15.0 5.7 54 27 5   101.22     LegendNANA
18:00 11.7 6.7 71 21 2   101.29     LegendNANA
19:00 8.5 6.1 85 16 4   101.36     LegendNANA
20:00 5.9 4.9 93 21 2   101.44     LegendNANA
21:00 4.9 4.0 94 21 2   101.50     LegendNANA
22:00 4.4 3.9 97 20 3   101.59     LegendNANA
23:00 3.5 3.1 97 19 1   101.67     LegendNANA

Notes on Data Quality.

Legend

  • E = Estimated
  • M = Missing
  • NA = Not Available
  • ‡ = Partner data that is not subject to review by the National Climate Archives
Date modified: